Hourly Data Report for July 23, 2020

All times are specified in Local Standard Time (LST). Add 1 hour to adjust for Daylight Saving Time where and when it is observed.

OTTAWA INTL A
ONTARIO
Current Station Operator: NAVCAN

45°19'00.000" N
75°40'00.000" W
114.90 m
6106001
71628
YOW

Download Data

Hourly Data (July 2020)
Hourly Data Report for July 23, 2020
TIME Temp Definition
°C
Dew Point Definition
°C
Rel Hum Definition
%
Wind Dir Definition
10's deg

Wind Spd Definition
km/h
Visibility Definition
km
Stn Press Definition
kPa
Hmdx Definition


Wind Chill Definition


Weather Definition


00:00 18.1 17.5 96 5 11 24.1 100.01     LegendNANA
01:00 18.2 17.5 96 3 14 24.1 99.99     Cloudy
02:00 18.2 17.5 96 4 10 24.1 100.00     LegendNANA
03:00 18.1 17.4 96 4 11 12.9 100.01     LegendNANA
04:00 18.0 17.6 97 2 14 6.4 100.06     Drizzle,Fog
05:00 17.8 17.2 97 4 10 9.7 100.14     Drizzle,Fog
06:00 17.9 17.2 95 5 13 24.1 100.17     LegendNANA
07:00 18.4 17.2 93 6 7 16.1 100.24     Cloudy
08:00 18.9 17.5 91 7 8 24.1 100.27     LegendNANA
09:00 19.2 17.7 91 8 7 16.1 100.29     LegendNANA
10:00 19.6 18.1 91 6 5 24.1 100.31     Cloudy
11:00 21.2 18.5 84 2 7 24.1 100.31 28   LegendNANA
12:00 22.6 18.6 78 2 5 24.1 100.28 29   LegendNANA
13:00 24.0 18.0 69 2 10 24.1 100.27 30   Mostly Cloudy
14:00 25.5 17.8 62 1 11 24.1 100.25 31   LegendNANA
15:00 26.4 16.5 54 30 11 24.1 100.24 31   LegendNANA
16:00 24.5 17.2 63 2 22 24.1 100.29 30   Mostly Cloudy
17:00 25.0 17.7 63 1 23 24.1 100.32 31   LegendNANA
18:00 23.8 16.7 64 36 21 24.1 100.32 29   LegendNANA
19:00 22.6 16.3 67 36 16 24.1 100.35 27   Mainly Clear
20:00 21.1 16.8 76 35 11 24.1 100.40 26   LegendNANA
21:00 19.6 16.9 84 30 10 24.1 100.45     LegendNANA
22:00 19.4 17.4 88 32 14 24.1 100.50     Clear
23:00 19.0 16.6 86 32 14 24.1 100.54     LegendNANA

Notes on Data Quality.

Legend

  • E = Estimated
  • M = Missing
  • NA = Not Available*
  • [empty] = Indicates an unobserved value
Date modified: